Regional Weather Roundup
Issued by NWS

Home | Current Version | Previous Version | Text Only | Print | Product List | Glossary Off
Versions: 1 2 3 4 5 6 7 8 9 10 11 12 13 14 15 16 17 18 19 20 21 22 23 24 25 26 27 28 29 30 31 32 33 34 35 36 37 38 39 40 41 42 43 44 45 46 47 48 49 50

000
ASUS43 KFSD 300810
RWRSD

WEATHER ROUNDUP FOR SOUTH DAKOTA
NATIONAL WEATHER SERVICE SIOUX FALLS SD
300 AM CDT SUN AUG 30 2015

NOTE: "FAIR" INDICATES FEW OR NO CLOUDS BELOW 12,000 FEET WITH NO
SIGNIFICANT WEATHER AND/OR OBSTRUCTIONS TO VISIBILITY.


SDZ001>005-009-010-012>017-300900-
NORTHWEST AND NORTH CENTRAL SOUTH DAKOTA

CITY           SKY/WX    TMP DP  RH WIND       PRES   REMARKS
BUFFALO          N/A     67  51  56 S5        29.75F
MOBRIDGE       MOCLDY    69  65  86 SE10      29.80F
$$

SDZ012>016-024>037-041>051-057-063-072>074-300900-
SOUTHWEST AND SOUTH CENTRAL SOUTH DAKOTA

CITY           SKY/WX    TMP DP  RH WIND       PRES   REMARKS
RAPID CTY ARPT PTCLDY    69  44  40 SE7       29.88F
PIERRE         CLEAR     73  58  59 S10       29.84F
CUSTER         PTCLDY    68  37  32 W5        30.08F
ELLSWORTH AFB  PTCLDY    71  44  38 S8        29.86F
PHILIP         PTCLDY    70  52  52 VRB3      29.85F
PINE RIDGE     PTCLDY    73  45  36 S15G24    29.94F
WINNER         FAIR      72  58  61 S18       29.90F
$$

SDZ004>011-016>023-039-040-300900-
NORTHEAST SOUTH DAKOTA

CITY           SKY/WX    TMP DP  RH WIND       PRES   REMARKS
ABERDEEN       CLEAR     65  63  93 S10       29.86F
WATERTOWN      CLEAR     63  61  93 S13       29.93F
BROOKINGS      CLOUDY    63  61  94 S13       29.98F
SISSETON         N/A     69  64  84 S7        29.85F
$$

SDZ017-020-022-023-036>040-048>070-300900-
SOUTHEAST SOUTH DAKOTA

CITY           SKY/WX    TMP DP  RH WIND       PRES   REMARKS
SIOUX FALLS    CLOUDY    63  61  93 S9        29.99S
HURON          CLEAR     66  64  93 S13       29.89F
CHAMBERLAIN    CLEAR     69  62  77 S9        29.90F
MITCHELL       CLEAR     65  64  97 S12       29.93F
YANKTON        CLOUDY    63  63 100 S9        29.97F
$$

ABBREVIATIONS USED IN REMARKS
   TC - TEMPERATURE IN CELSIUS
  WCI - WIND CHILL INDEX
   HX - HEAT INDEX
  VSB - VISIBILITY




USA.gov is the U.S. government's official web portal to all federal, state and local government web resources and services.